Regional Weather Roundup
Issued by NWS

Home | Current Version | Previous Version | Graphics & Text | Print | Product List | Glossary On
Versions: 1 2 3 4 5 6 7 8 9 10 11 12 13 14 15 16 17 18 19 20 21 22 23 24 25 26 27 28 29 30 31 32 33 34 35 36 37 38 39 40 41 42 43 44 45 46 47 48 49 50
000
ASUS44 KMEG 250010
RWRTN
TENNESSEE HOURLY STATE WEATHER ROUNDUP
NATIONAL WEATHER SERVICE MEMPHIS TN
600 PM CST FRI NOV 24 2017

TNZ002-004-019-021-049-052-054-088>092-250100-
WEST TENNESSEE

CITY           SKY/WX    TMP DP  RH WIND       PRES   REMARKS
MEMPHIS INTL   PTCLDY    54  33  45 S7        29.88R
NWS MEMPHIS      N/A     55 N/A N/A MISG        N/A
JACKSON        CLEAR     52  31  44 S7        29.88R
DYERSBURG      CLEAR     57  33  40 S7        29.86R
SOMERVILLE     CLEAR     55  30  38 S6        29.87R
COVINGTON      CLEAR     54  32  43 S6        29.87S
UNION CITY     CLEAR     50  32  50 S7        29.84R
BOLIVAR        CLEAR     52  30  43 S5        29.88R
PARIS          CLEAR     50  32  50 S8        29.85R
HUNTINGDON     CLEAR     50  30  46 S3        29.86R
LEXINGTON      CLEAR     54  28  37 S6        29.88S
SELMER         CLEAR     54  27  35 S6        29.89S
SAVANNAH       CLEAR     46  32  57 CALM      29.90S
$$

TNZ008-025-027-028-033-062-065-066-250100-
NORTH MIDDLE TENNESSEE

CITY           SKY/WX    TMP DP  RH WIND       PRES   REMARKS
NASHVILLE      PTCLDY    54  29  38 S5        29.89R
PORTLAND       CLEAR     52  27  37 S6        29.87R
CLARKSVILLE    CLEAR     55  24  30 S5        29.86S
SMYRNA         CLEAR     47  33  58 CALM      29.91R
COOKEVILLE     CLEAR     43  36  75 CALM      29.89R
GALLATIN       CLEAR     55  30  38 S3        29.91R
CROSSVILLE     CLOUDY    50  37  61 S3        29.92R
$$

TNZ061-075-076-078-094-096-097-250100-
SOUTH MIDDLE TENNESSEE

CITY           SKY/WX    TMP DP  RH WIND       PRES   REMARKS
FAYETTEVILLE   CLEAR     52  37  58 CALM      29.91S
TULLAHOMA      CLEAR     46  36  66 CALM      29.91R
WINCHESTER     CLEAR     43  37  81 CALM      29.93R
MCMINNVILLE    CLEAR     52  39  62 SW3       29.91R
COLUMBIA       CLEAR     52  25  35 CALM      29.89R
SHELBYVILLE    CLEAR     48  36  61 S6        29.90S
$$

TNZ017-018-042-046-047-250100-
NORTHEAST TENNESSEE

CITY           SKY/WX    TMP DP  RH WIND       PRES   REMARKS
TRI CITIES     PTCLDY    42  34  73 CALM      29.93R
ELIZABETHTON   CLEAR     41  36  81 CALM      29.94R
$$

TNZ012-013-036-069-073-074-250100-
CENTRAL EAST TENNESSEE

CITY           SKY/WX    TMP DP  RH WIND       PRES   REMARKS
KNOXVILLE      MOCLDY    51  41  68 SE5       29.91S
OAK RIDGE      CLEAR     48  40  73 CALM      29.93S
DOWNTOWN KNOXV   N/A     46  43  87 CALM      29.92S
GATLINBURG     CLEAR     46  39  76 CALM      29.92S
MORRISTOWN     CLEAR     46  39  76 CALM      29.92S
JACKSBORO      CLEAR     46  37  71 CALM      29.94S
$$

TNZ083-085-099-250100-
SOUTHEAST TENNESSEE

CITY           SKY/WX    TMP DP  RH WIND       PRES   REMARKS
CHATTANOOGA    PTCLDY    48  40  73 CALM      29.93S
DAYTON         CLOUDY    46  43  87 CALM      29.92R
$$

SKY/WX REPORTED AS FAIR MEANS FEW OR NO CLOUDS BELOW
12 THOUSAND FEET.




USA.gov is the U.S. government's official web portal to all federal, state and local government web resources and services.